Regional Weather Roundup
Issued by NWS

Home | Current Version | Previous Version | Text Only | Print | Product List | Glossary Off
Versions: 1 2 3 4 5 6 7 8 9 10 11 12 13 14 15 16 17 18 19 20 21 22 23 24 25 26 27 28 29 30 31 32 33 34 35 36 37 38 39 40 41 42 43 44 45 46 47 48 49 50

000
ASUS45 KCYS 052310
RWRWY

WYOMING REGIONAL WEATHER ROUNDUP
NATIONAL WEATHER SERVICE CHEYENNE WY
400 PM MST MON DEC 05 2016

NOTE:  "FAIR" INDICATES FEW OR NO CLOUDS BELOW 12,000 FEET
WITH NO SIGNIFICANT WEATHER AND/OR OBSTRUCTIONS TO VISIBILITY.

WYZ001-060000-
YELLOWSTONE NATIONAL PARK

CITY           SKY/WX    TMP DP  RH WIND       PRES   REMARKS
LK YELLOWSTONE   N/A      6  -5  60 VRB7      29.83R WCI  -6
W YELLOWSTONE  NOT AVBL

$$
WYZ002>013-054>058-071-098>099-060000-
NORTHERN WYOMING

CITY           SKY/WX    TMP DP  RH WIND       PRES   REMARKS
JACKSON        PTCLDY    16  -2  45 W6        29.91R WCI   7
CODY           FLURRIES  16  10  77 N12       29.91R WCI   3
GREYBULL       CLOUDY    23   4  44 N17       29.94R WCI   9
WORLAND        CLOUDY    22  11  62 NW13      29.94R WCI  10
SHERIDAN       CLOUDY    20  11  68 NW28      29.94R WCI   2
BUFFALO        FAIR      18   6  59 NW26G39   29.84R WCI  -1
GILLETTE       MOCLDY    17  12  80 NW14      29.85R WCI   3
HULETT         CLOUDY    19  12  73 W6        29.84R WCI  11
NEWCASTLE      FLURRIES  19  12  73 NW13G22   29.84R WCI   7

$$
WYZ014>020-022>026-101>103-060000-
CENTRAL WYOMING

CITY           SKY/WX    TMP DP  RH WIND       PRES   REMARKS
BIG PINEY      FAIR      14  -7  38 NW16      29.89R WCI  -2
PINEDALE       FAIR      12  -2  52 NW12      29.88R WCI  -2
DUBOIS         FAIR       9  -4  56 NW14      29.81R WCI  -8
LANDER         FAIR      21  -7  28 NW14G25   29.85R WCI   8
RIVERTON       FAIR      21  -6  30 NW18G29   29.87R WCI   6
CASPER         CLOUDY    17  13  84 SW3       29.85R
DOUGLAS        CLOUDY    18  13  80 N6        29.87R WCI  10

$$
WYZ021-027>030-104>119-060000-
SOUTHERN WYOMING

CITY           SKY/WX    TMP DP  RH WIND       PRES   REMARKS
EVANSTON       FAIR      18 -16  21 W10       29.91R WCI   6
FORT BRIDGER   FAIR      19  -4  37 N7        29.94R WCI   9
ROCK SPRINGS   FAIR      17  -5  37 W17G24    29.89R WCI   1
DIXON          CLOUDY    20  -3  36 W17       29.92R WCI   5
RAWLINS        FAIR      18 -11  27 W29G36    29.81R WCI  -1
SARATOGA       FAIR      18   3  53 W20       29.82S WCI   1
LARAMIE        CLOUDY    17 -10  29 NW28G40   29.75R WCI  -2
CHEYENNE       CLOUDY    23 -11  22 W16G31    29.78R WCI  10
TORRINGTON     MOCLDY    23  11  60 NW18G28   29.84R WCI   9
PINE BLUFFS    FAIR      23  12  63 NW31G38   29.77R WCI   5

$$



USA.gov is the U.S. government's official web portal to all federal, state and local government web resources and services.